This is the latest recevied weather packets stored in our database for station/object DF9PM-13. If no packets are shown the sender has not sent any weather packets the latest 10 day(s).
| Time | Temp. | Humidity | Pressure | Rain* | Wind** | Luminosity | Snow |
|---|---|---|---|---|---|---|---|
| 1777909841 | 20° C | 64% | 1012.7 hPa | - | - | - | - |
| 1777909540 | 20° C | 63% | 1012.6 hPa | - | - | - | - |
| 1777909240 | 20.56° C | 61% | 1012.5 hPa | - | - | - | - |
| 1777908940 | 20.56° C | 62% | 1012.5 hPa | - | - | - | - |
| 1777908640 | 20.56° C | 63% | 1012.5 hPa | - | - | - | - |
| 1777908340 | 21.11° C | 60% | 1012.5 hPa | - | - | - | - |
| 1777908040 | 20.56° C | 61% | 1012.4 hPa | - | - | - | - |
| 1777907740 | 21.11° C | 58% | 1012.4 hPa | - | - | - | - |
| 1777907440 | 21.67° C | 57% | 1012.3 hPa | - | - | - | - |
| 1777907140 | 21.67° C | 55% | 1012.3 hPa | - | - | - | - |
| 1777906840 | 21.67° C | 56% | 1012.4 hPa | - | - | - | - |
| 1777906540 | 21.67° C | 53% | 1012.3 hPa | - | - | - | - |
| 1777906240 | 21.67° C | 53% | 1012.2 hPa | - | - | - | - |
| 1777905940 | 21.67° C | 54% | 1012.3 hPa | - | - | - | - |
| 1777905640 | 22.22° C | 52% | 1012.4 hPa | - | - | - | - |
| 1777905340 | 22.22° C | 49% | 1012.5 hPa | - | - | - | - |
| 1777905039 | 21.67° C | 50% | 1012.6 hPa | - | - | - | - |
| 1777904739 | 22.22° C | 46% | 1012.6 hPa | - | - | - | - |
| 1777904439 | 22.22° C | 47% | 1012.6 hPa | - | - | - | - |
| 1777904139 | 21.67° C | 46% | 1012.7 hPa | - | - | - | - |
| 1777903839 | 22.22° C | 46% | 1012.8 hPa | - | - | - | - |
| 1777903539 | 22.78° C | 45% | 1012.7 hPa | - | - | - | - |
| 1777903239 | 21.67° C | 45% | 1012.8 hPa | - | - | - | - |
| 1777902939 | 21.67° C | 44% | 1012.8 hPa | - | - | - | - |
| 1777902639 | 22.22° C | 45% | 1012.8 hPa | - | - | - | - |
* Rain since midnight (hover to see other rain measurements)
** Current wind speed in m/s (hover to see current wind gust speed)